Hourly Data Report for October 02, 2019

All times are specified in Local Standard Time (LST). Add 1 hour to adjust for Daylight Saving Time where and when it is observed.

SEPT-ILES
QUEBEC
Current Station Operator: ECCC - MSC

50°13'00.000" N
66°15'00.000" W
52.60 m
7047914
71279
XZV

Download Data

Hourly Data (October 2019)
Hourly Data Report for October 2, 2019
TIME Temp Definition
°C
Dew Point Definition
°C
Rel Hum Definition
%
Wind Dir Definition
10's deg

Wind Spd Definition
km/h
Visibility Definition
km
Stn Press Definition
kPa
Hmdx Definition


Wind Chill Definition


Weather Definition


00:00 0.8 0.2 95 1 6   100.29     LegendNANA
01:00 1.1 0.3 95 1 7   100.28     LegendNANA
02:00 1.3 0.4 94 1 7   100.28     LegendNANA
03:00 1.1 0.1 93 36 8   100.29     LegendNANA
04:00 1.2 -0.1 91 1 8   100.32     LegendNANA
05:00 0.9 -0.5 90 35 8   100.36     LegendNANA
06:00 0.8 -0.7 90 35 10   100.43     LegendNANA
07:00 1.8 -0.2 87 34 9   100.55     LegendNANA
08:00 3.3 0.5 81 34 9   100.60     LegendNANA
09:00 4.5 -1.2 66 34 11   100.59     LegendNANA
10:00 5.2 -0.2 68 34 7   100.60     LegendNANA
11:00 5.6 0.1 67 34 7   100.59     LegendNANA
12:00 5.9 -0.5 63 34 8   100.58     LegendNANA
13:00 6.5 -0.8 59 33 13   100.57     LegendNANA
14:00 6.8 -2.5 52 32 13   100.58     LegendNANA
15:00 6.7 -1.8 55 32 12   100.59     LegendNANA
16:00 6.4 -2.4 53 32 10   100.62     LegendNANA
17:00 5.5 -1.2 62 31 7   100.67     LegendNANA
18:00 4.5 -0.9 68 30 9   100.70     LegendNANA
19:00 4.1 -1.8 65 31 8   100.77     LegendNANA
20:00 2.9 -2.1 70 31 8   100.80     LegendNANA
21:00 2.4 -1.5 75 30 7   100.79     LegendNANA
22:00 2.4 -1.1 78 30 7   100.78     LegendNANA
23:00 1.6 -1.0 83 30 11   100.78     LegendNANA

Notes on Data Quality.

Legend

  • E = Estimated
  • M = Missing
  • NA = Not Available
Date modified: